Time,TemperatureF,DewpointF,PressureIn,WindDirection,WindDirectionDegrees,WindSpeedMPH,WindSpeedGustMPH,Humidity,HourlyPrecipIn,Conditions,Clouds,dailyrainin,SoftwareType,DateUTC
2013-11-19 00:01:00,49.1,27.6,29.83,West,280,13.0,21.0,43,0.00,,,0.00,WeatherCatV1.23B14,2013-11-19 05:01:00,
2013-11-19 00:06:00,49.0,26.9,29.83,WNW,295,7.0,16.0,42,0.00,,,0.00,WeatherCatV1.23B14,2013-11-19 05:06:00,
2013-11-19 00:11:00,49.0,26.9,29.83,WNW,302,6.0,17.0,42,0.00,,,0.00,WeatherCatV1.23B14,2013-11-19 05:11:00,
2013-11-19 00:16:00,48.8,27.9,29.83,West,272,5.0,15.0,44,0.00,,,0.00,WeatherCatV1.23B14,2013-11-19 05:16:00,
2013-11-19 00:21:00,48.6,27.1,29.83,NNW,344,7.0,20.0,43,0.00,,,0.00,WeatherCatV1.23B14,2013-11-19 05:21:00,
2013-11-19 00:26:00,48.5,27.6,29.83,WNW,300,10.0,16.0,44,0.00,,,0.00,WeatherCatV1.23B14,2013-11-19 05:26:00,
2013-11-19 00:31:00,48.3,27.4,29.83,WNW,298,4.0,10.0,44,0.00,,,0.00,WeatherCatV1.23B14,2013-11-19 05:31:00,
2013-11-19 00:36:00,48.1,27.8,29.83,WNW,282,5.0,10.0,45,0.00,,,0.00,WeatherCatV1.23B14,2013-11-19 05:36:00,
2013-11-19 00:41:00,48.0,27.7,29.84,NW,305,12.0,12.0,45,0.00,,,0.00,WeatherCatV1.23B14,2013-11-19 05:41:00,
2013-11-19 00:46:00,47.9,27.6,29.84,NW,313,8.0,12.0,45,0.00,,,0.00,WeatherCatV1.23B14,2013-11-19 05:46:00,
2013-11-19 00:51:00,47.7,27.4,29.84,WSW,241,11.0,16.0,45,0.00,,,0.00,WeatherCatV1.23B14,2013-11-19 05:51:00,
2013-11-19 00:56:00,47.6,27.3,29.84,WNW,302,2.0,18.0,45,0.00,,,0.00,WeatherCatV1.23B14,2013-11-19 05:56:00,
2013-11-19 01:01:00,47.4,27.7,29.84,WSW,246,4.0,14.0,46,0.00,,,0.00,WeatherCatV1.23B14,2013-11-19 06:01:00,
2013-11-19 01:06:00,47.3,28.1,29.84,NNW,332,4.0,8.0,47,0.00,,,0.00,WeatherCatV1.23B14,2013-11-19 06:06:00,
2013-11-19 01:11:00,47.1,27.9,29.84,NW,315,5.0,13.0,47,0.00,,,0.00,WeatherCatV1.23B14,2013-11-19 06:11:00,
2013-11-19 01:16:00,47.0,27.8,29.84,NW,324,2.0,19.0,47,0.00,,,0.00,WeatherCatV1.23B14,2013-11-19 06:16:00,
2013-11-19 01:21:00,47.0,28.3,29.84,WNW,295,5.0,12.0,48,0.00,,,0.00,WeatherCatV1.23B14,2013-11-19 06:21:00,
2013-11-19 01:26:00,46.9,28.8,29.84,WNW,295,3.0,12.0,49,0.00,,,0.00,WeatherCatV1.23B14,2013-11-19 06:26:00,
2013-11-19 01:31:00,46.6,28.5,29.84,West,270,12.0,17.0,49,0.00,,,0.00,WeatherCatV1.23B14,2013-11-19 06:31:00,
2013-11-19 01:36:00,46.7,28.6,29.84,WNW,303,3.0,16.0,49,0.00,,,0.00,WeatherCatV1.23B14,2013-11-19 06:36:00,
2013-11-19 01:40:00,46.6,29.0,29.84,West,274,7.0,14.0,50,0.00,,,0.00,WeatherCatV1.23B14,2013-11-19 06:40:00,
2013-11-19 01:41:00,46.5,28.9,29.84,WNW,292,4.0,14.0,50,0.00,,,0.00,WeatherCatV1.23B14,2013-11-19 06:41:00,
2013-11-19 01:45:00,46.4,28.3,29.85,WNW,288,6.0,12.0,49,0.00,,,0.00,WeatherCatV1.23B14,2013-11-19 06:45:00,
2013-11-19 01:50:00,46.4,28.8,29.85,WNW,287,6.0,10.0,50,0.00,,,0.00,WeatherCatV1.23B14,2013-11-19 06:50:00,
2013-11-19 01:55:00,46.4,28.8,29.85,WNW,287,7.0,8.0,50,0.00,,,0.00,WeatherCatV1.23B14,2013-11-19 06:55:00,
2013-11-19 02:00:00,46.3,29.2,29.85,West,281,7.0,7.0,51,0.00,,,0.00,WeatherCatV1.23B14,2013-11-19 07:00:00,
2013-11-19 02:05:00,46.2,29.1,29.85,WNW,282,6.0,8.0,51,0.00,,,0.00,WeatherCatV1.23B14,2013-11-19 07:05:00,
2013-11-19 02:10:00,46.1,29.0,29.85,WNW,297,5.0,9.0,51,0.00,,,0.00,WeatherCatV1.23B14,2013-11-19 07:10:00,
2013-11-19 02:15:00,46.0,28.9,29.85,WNW,291,5.0,14.0,51,0.00,,,0.00,WeatherCatV1.23B14,2013-11-19 07:15:00,
2013-11-19 02:20:00,46.0,28.9,29.86,WNW,291,6.0,9.0,51,0.00,,,0.00,WeatherCatV1.23B14,2013-11-19 07:20:00,
2013-11-19 02:25:00,45.9,28.8,29.86,West,277,5.0,5.0,51,0.00,,,0.00,WeatherCatV1.23B14,2013-11-19 07:25:00,
2013-11-19 02:30:00,45.8,28.7,29.86,WNW,283,5.0,9.0,51,0.00,,,0.00,WeatherCatV1.23B14,2013-11-19 07:30:00,
2013-11-19 02:35:00,45.6,28.5,29.86,WNW,287,5.0,9.0,51,0.00,,,0.00,WeatherCatV1.23B14,2013-11-19 07:35:00,
2013-11-19 02:40:00,45.5,28.4,29.86,NW,306,4.0,10.0,51,0.00,,,0.00,WeatherCatV1.23B14,2013-11-19 07:40:00,
2013-11-19 02:45:00,45.7,28.6,29.87,West,278,6.0,9.0,51,0.00,,,0.00,WeatherCatV1.23B14,2013-11-19 07:45:00,
2013-11-19 02:50:00,45.8,28.7,29.87,WNW,293,7.0,12.0,51,0.00,,,0.00,WeatherCatV1.23B14,2013-11-19 07:50:00,
2013-11-19 02:55:00,45.9,28.3,29.87,WNW,295,6.0,12.0,50,0.00,,,0.00,WeatherCatV1.23B14,2013-11-19 07:55:00,
2013-11-19 03:00:00,45.9,28.3,29.88,West,280,5.0,5.0,50,0.00,,,0.00,WeatherCatV1.23B14,2013-11-19 08:00:00,
2013-11-19 03:05:00,45.8,28.7,29.87,WNW,294,5.0,12.0,51,0.00,,,0.00,WeatherCatV1.23B14,2013-11-19 08:05:00,
2013-11-19 03:10:00,45.6,29.0,29.88,WNW,295,5.0,11.0,52,0.00,,,0.00,WeatherCatV1.23B14,2013-11-19 08:10:00,
2013-11-19 03:15:00,45.6,28.5,29.89,NW,315,6.0,11.0,51,0.00,,,0.00,WeatherCatV1.23B14,2013-11-19 08:15:00,
2013-11-19 03:28:00,45.6,28.0,29.89,NW,304,7.0,12.0,50,0.00,,,0.00,WeatherCatV1.23B14,2013-11-19 08:28:00,
2013-11-19 03:33:00,45.3,27.8,29.90,WNW,287,12.0,12.0,50,0.00,,,0.00,WeatherCatV1.23B14,2013-11-19 08:33:00,
2013-11-19 03:38:00,45.2,28.2,29.90,NNE,16,8.0,8.0,51,0.00,,,0.00,WeatherCatV1.23B14,2013-11-19 08:38:00,
2013-11-19 03:43:00,45.1,27.6,29.91,NW,314,4.0,9.0,50,0.00,,,0.00,WeatherCatV1.23B14,2013-11-19 08:43:00,
2013-11-19 03:48:00,45.1,28.1,29.91,North,359,4.0,5.0,51,0.00,,,0.00,WeatherCatV1.23B14,2013-11-19 08:48:00,
2013-11-19 03:53:00,44.9,27.9,29.92,West,278,5.0,14.0,51,0.00,,,0.00,WeatherCatV1.23B14,2013-11-19 08:53:00,
2013-11-19 03:58:00,44.8,28.3,29.92,WNW,295,5.0,10.0,52,0.00,,,0.00,WeatherCatV1.23B14,2013-11-19 08:58:00,
2013-11-19 04:03:00,44.7,27.7,29.92,West,271,21.0,21.0,51,0.00,,,0.00,WeatherCatV1.23B14,2013-11-19 09:03:00,
2013-11-19 04:08:00,44.6,28.1,29.93,WNW,283,6.0,9.0,52,0.00,,,0.00,WeatherCatV1.23B14,2013-11-19 09:08:00,
2013-11-19 04:13:00,44.5,27.5,29.93,NNE,22,7.0,14.0,51,0.00,,,0.00,WeatherCatV1.23B14,2013-11-19 09:13:00,
2013-11-19 04:18:00,44.5,28.0,29.93,North,10,11.0,16.0,52,0.00,,,0.00,WeatherCatV1.23B14,2013-11-19 09:18:00,
2013-11-19 04:23:00,44.5,28.5,29.94,North,353,4.0,17.0,53,0.00,,,0.00,WeatherCatV1.23B14,2013-11-19 09:23:00,
2013-11-19 04:28:00,44.5,28.5,29.94,NW,322,3.0,19.0,53,0.00,,,0.00,WeatherCatV1.23B14,2013-11-19 09:28:00,
2013-11-19 04:33:00,44.4,28.4,29.94,West,273,5.0,10.0,53,0.00,,,0.00,WeatherCatV1.23B14,2013-11-19 09:33:00,
2013-11-19 04:38:00,44.3,28.7,29.94,NW,305,6.0,7.0,54,0.00,,,0.00,WeatherCatV1.23B14,2013-11-19 09:38:00,
2013-11-19 04:43:00,44.3,28.7,29.95,WNW,297,9.0,16.0,54,0.00,,,0.00,WeatherCatV1.23B14,2013-11-19 09:43:00,
2013-11-19 04:48:00,44.1,28.1,29.95,NNW,340,7.0,14.0,53,0.00,,,0.00,WeatherCatV1.23B14,2013-11-19 09:48:00,
2013-11-19 04:53:00,44.0,27.5,29.95,West,268,3.0,11.0,52,0.00,,,0.00,WeatherCatV1.23B14,2013-11-19 09:53:00,
2013-11-19 04:58:00,43.8,27.3,29.95,NW,307,16.0,17.0,52,0.00,,,0.00,WeatherCatV1.23B14,2013-11-19 09:58:00,
2013-11-19 05:03:00,43.7,27.2,29.96,West,274,4.0,15.0,52,0.00,,,0.00,WeatherCatV1.23B14,2013-11-19 10:03:00,
2013-11-19 05:08:00,43.6,28.1,29.96,NW,321,4.0,9.0,54,0.00,,,0.00,WeatherCatV1.23B14,2013-11-19 10:08:00,
2013-11-19 05:13:00,43.5,27.5,29.96,NW,318,3.0,12.0,53,0.00,,,0.00,WeatherCatV1.23B14,2013-11-19 10:13:00,
2013-11-19 05:18:00,43.5,27.5,29.96,NNW,339,11.0,16.0,53,0.00,,,0.00,WeatherCatV1.23B14,2013-11-19 10:18:00,
2013-11-19 05:23:00,43.4,27.4,29.96,NNE,16,8.0,17.0,53,0.00,,,0.00,WeatherCatV1.23B14,2013-11-19 10:23:00,
2013-11-19 05:28:00,43.4,27.0,29.97,NNW,343,4.0,18.0,52,0.00,,,0.00,WeatherCatV1.23B14,2013-11-19 10:28:00,
2013-11-19 05:33:00,43.3,26.4,29.98,WSW,251,6.0,12.0,51,0.00,,,0.00,WeatherCatV1.23B14,2013-11-19 10:33:00,
2013-11-19 05:38:00,43.3,26.9,29.98,WNW,303,2.0,6.0,52,0.00,,,0.00,WeatherCatV1.23B14,2013-11-19 10:38:00,
2013-11-19 05:43:00,43.2,27.2,29.98,NNW,329,2.0,5.0,53,0.00,,,0.00,WeatherCatV1.23B14,2013-11-19 10:43:00,
2013-11-19 05:48:00,43.2,25.8,29.98,West,265,3.0,7.0,50,0.00,,,0.00,WeatherCatV1.23B14,2013-11-19 10:48:00,
2013-11-19 05:53:00,43.1,26.2,29.98,NW,320,1.0,12.0,51,0.00,,,0.00,WeatherCatV1.23B14,2013-11-19 10:53:00,
2013-11-19 05:58:00,42.9,26.0,29.99,NE,48,4.0,9.0,51,0.00,,,0.00,WeatherCatV1.23B14,2013-11-19 10:58:00,
2013-11-19 06:03:00,42.9,26.0,29.99,SW,219,2.0,9.0,51,0.00,,,0.00,WeatherCatV1.23B14,2013-11-19 11:03:00,
2013-11-19 06:08:00,42.8,25.9,29.99,WSW,258,7.0,14.0,51,0.00,,,0.00,WeatherCatV1.23B14,2013-11-19 11:08:00,
2013-11-19 06:13:00,42.8,26.4,30.00,NW,319,3.0,11.0,52,0.00,,,0.00,WeatherCatV1.23B14,2013-11-19 11:13:00,
2013-11-19 06:17:00,42.7,26.3,30.00,NW,307,4.0,7.0,52,0.00,,,0.00,WeatherCatV1.23B14,2013-11-19 11:17:00,
2013-11-19 06:22:00,42.6,26.2,30.00,WNW,297,4.0,10.0,52,0.00,,,0.00,WeatherCatV1.23B14,2013-11-19 11:22:00,
2013-11-19 06:27:00,42.6,26.2,30.01,NW,309,6.0,12.0,52,0.00,,,0.00,WeatherCatV1.23B14,2013-11-19 11:27:00,
2013-11-19 06:32:00,42.6,25.8,30.01,WNW,301,5.0,5.0,51,0.00,,,0.00,WeatherCatV1.23B14,2013-11-19 11:32:00,
2013-11-19 06:37:00,42.6,26.2,30.01,NNE,14,2.0,8.0,52,0.00,,,0.00,WeatherCatV1.23B14,2013-11-19 11:37:00,
2013-11-19 06:42:00,42.6,25.8,30.01,North,359,4.0,10.0,51,0.00,,,0.00,WeatherCatV1.23B14,2013-11-19 11:42:00,
2013-11-19 06:47:00,42.5,25.7,30.01,WNW,296,11.0,13.0,51,0.00,,,0.00,WeatherCatV1.23B14,2013-11-19 11:47:00,
2013-11-19 06:52:00,42.5,26.6,30.01,West,270,5.0,5.0,53,0.00,,,0.00,WeatherCatV1.23B14,2013-11-19 11:52:00,
2013-11-19 06:57:00,42.3,26.4,30.02,WNW,283,5.0,5.0,53,0.00,,,0.00,WeatherCatV1.23B14,2013-11-19 11:57:00,
2013-11-19 07:02:00,42.2,26.3,30.02,NNW,332,2.0,4.0,53,0.00,,,0.00,WeatherCatV1.23B14,2013-11-19 12:02:00,
2013-11-19 07:07:00,42.1,25.8,30.02,NNW,328,4.0,4.0,52,0.00,,,0.00,WeatherCatV1.23B14,2013-11-19 12:07:00,
2013-11-19 07:12:00,42.1,27.1,30.03,WNW,302,0.0,3.0,55,0.00,,,0.00,WeatherCatV1.23B14,2013-11-19 12:12:00,
2013-11-19 07:17:00,42.0,26.1,30.03,North,359,3.0,4.0,53,0.00,,,0.00,WeatherCatV1.23B14,2013-11-19 12:17:00,
2013-11-19 07:22:00,41.9,26.9,30.03,North,353,3.0,8.0,55,0.00,,,0.00,WeatherCatV1.23B14,2013-11-19 12:22:00,
2013-11-19 07:27:00,41.9,26.5,30.03,SW,222,1.0,11.0,54,0.00,,,0.00,WeatherCatV1.23B14,2013-11-19 12:27:00,
2013-11-19 07:32:00,42.0,26.1,30.03,NW,311,3.0,9.0,53,0.00,,,0.00,WeatherCatV1.23B14,2013-11-19 12:32:00,
2013-11-19 07:37:00,42.1,25.8,30.03,WNW,291,3.0,15.0,52,0.00,,,0.00,WeatherCatV1.23B14,2013-11-19 12:37:00,
2013-11-19 07:42:00,42.2,26.8,30.04,West,274,0.0,2.0,54,0.00,,,0.00,WeatherCatV1.23B14,2013-11-19 12:42:00,
2013-11-19 07:47:00,42.2,26.3,30.04,West,264,3.0,4.0,53,0.00,,,0.00,WeatherCatV1.23B14,2013-11-19 12:47:00,
2013-11-19 07:52:00,42.3,25.9,30.04,NW,311,6.0,17.0,52,0.00,,,0.00,WeatherCatV1.23B14,2013-11-19 12:52:00,
2013-11-19 07:57:00,42.4,26.5,30.04,NNW,330,3.0,9.0,53,0.00,,,0.00,WeatherCatV1.23B14,2013-11-19 12:57:00,
2013-11-19 08:02:00,42.5,27.0,30.04,South,170,2.0,5.0,54,0.00,,,0.00,WeatherCatV1.23B14,2013-11-19 13:02:00,
2013-11-19 08:07:00,42.6,26.2,30.05,NNE,16,2.0,6.0,52,0.00,,,0.00,WeatherCatV1.23B14,2013-11-19 13:07:00,
2013-11-19 08:12:00,42.7,26.3,30.05,NW,318,1.0,9.0,52,0.00,,,0.00,WeatherCatV1.23B14,2013-11-19 13:12:00,
2013-11-19 08:17:00,42.9,27.0,30.05,WSW,251,1.0,5.0,53,0.00,,,0.00,WeatherCatV1.23B14,2013-11-19 13:17:00,
2013-11-19 08:22:00,43.1,26.7,30.06,North,354,14.0,16.0,52,0.00,,,0.00,WeatherCatV1.23B14,2013-11-19 13:22:00,
2013-11-19 08:27:00,43.2,26.8,30.06,WNW,284,10.0,12.0,52,0.00,,,0.00,WeatherCatV1.23B14,2013-11-19 13:27:00,
2013-11-19 08:32:00,43.4,26.5,30.06,NNE,12,9.0,16.0,51,0.00,,,0.00,WeatherCatV1.23B14,2013-11-19 13:32:00,
2013-11-19 08:37:00,43.5,27.1,30.06,NNE,25,3.0,13.0,52,0.00,,,0.00,WeatherCatV1.23B14,2013-11-19 13:37:00,
2013-11-19 08:42:00,43.7,26.3,30.06,NW,324,12.0,15.0,50,0.00,,,0.00,WeatherCatV1.23B14,2013-11-19 13:42:00,
2013-11-19 08:47:00,43.9,27.0,30.07,NW,326,5.0,16.0,51,0.00,,,0.00,WeatherCatV1.23B14,2013-11-19 13:47:00,
2013-11-19 08:52:00,44.0,26.6,30.07,North,351,2.0,8.0,50,0.00,,,0.00,WeatherCatV1.23B14,2013-11-19 13:52:00,
2013-11-19 08:57:00,44.0,26.6,30.07,North,353,10.0,17.0,50,0.00,,,0.00,WeatherCatV1.23B14,2013-11-19 13:57:00,
2013-11-19 09:02:00,43.9,26.5,30.08,NNE,20,3.0,14.0,50,0.00,,,0.00,WeatherCatV1.23B14,2013-11-19 14:02:00,
2013-11-19 09:07:00,43.8,26.4,30.08,North,8,3.0,9.0,50,0.00,,,0.00,WeatherCatV1.23B14,2013-11-19 14:07:00,
2013-11-19 09:12:00,43.6,26.2,30.08,NW,306,7.0,12.0,50,0.00,,,0.00,WeatherCatV1.23B14,2013-11-19 14:12:00,
2013-11-19 09:17:00,43.5,27.1,30.09,WNW,293,9.0,10.0,52,0.00,,,0.00,WeatherCatV1.23B14,2013-11-19 14:17:00,
2013-11-19 09:22:00,43.6,26.7,30.09,WNW,302,2.0,9.0,51,0.00,,,0.00,WeatherCatV1.23B14,2013-11-19 14:22:00,
2013-11-19 09:27:00,43.6,27.1,30.09,NW,312,8.0,9.0,52,0.00,,,0.00,WeatherCatV1.23B14,2013-11-19 14:27:00,
2013-11-19 09:28:00,43.6,27.1,30.09,WNW,301,6.0,9.0,52,0.00,,,0.00,WeatherCatV1.23B14,2013-11-19 14:28:00,
2013-11-19 09:33:00,43.9,27.4,30.09,NW,313,9.0,11.0,52,0.00,,,0.00,WeatherCatV1.23B14,2013-11-19 14:33:00,
2013-11-19 09:38:00,44.3,27.3,30.10,NW,311,2.0,10.0,51,0.00,,,0.00,WeatherCatV1.23B14,2013-11-19 14:38:00,
2013-11-19 09:43:00,44.7,26.7,30.10,North,7,7.0,16.0,49,0.00,,,0.00,WeatherCatV1.23B14,2013-11-19 14:43:00,
2013-11-19 09:48:00,45.0,27.0,30.10,NW,316,3.0,17.0,49,0.00,,,0.00,WeatherCatV1.23B14,2013-11-19 14:48:00,
2013-11-19 09:53:00,45.4,27.4,30.10,West,263,5.0,15.0,49,0.00,,,0.00,WeatherCatV1.23B14,2013-11-19 14:53:00,
2013-11-19 09:58:00,45.7,27.1,30.10,North,351,2.0,14.0,48,0.00,,,0.00,WeatherCatV1.23B14,2013-11-19 14:58:00,
2013-11-19 10:03:00,45.7,27.1,30.10,North,353,11.0,18.0,48,0.00,,,0.00,WeatherCatV1.23B14,2013-11-19 15:03:00,
2013-11-19 10:08:00,45.5,27.0,30.10,North,351,2.0,14.0,48,0.00,,,0.00,WeatherCatV1.23B14,2013-11-19 15:08:00,
2013-11-19 10:13:00,45.5,27.5,30.10,NW,326,3.0,8.0,49,0.00,,,0.00,WeatherCatV1.23B14,2013-11-19 15:13:00,
2013-11-19 10:18:00,45.5,27.0,30.10,NW,310,1.0,12.0,48,0.00,,,0.00,WeatherCatV1.23B14,2013-11-19 15:18:00,
2013-11-19 10:23:00,45.4,26.9,30.11,NW,314,5.0,15.0,48,0.00,,,0.00,WeatherCatV1.23B14,2013-11-19 15:23:00,
2013-11-19 10:28:00,45.7,27.6,30.10,West,265,4.0,7.0,49,0.00,,,0.00,WeatherCatV1.23B14,2013-11-19 15:28:00,
2013-11-19 10:33:00,46.4,27.3,30.11,NNW,347,6.0,14.0,47,0.00,,,0.00,WeatherCatV1.23B14,2013-11-19 15:33:00,
2013-11-19 10:38:00,46.6,26.9,30.11,NNE,14,16.0,16.0,46,0.00,,,0.00,WeatherCatV1.23B14,2013-11-19 15:38:00,
2013-11-19 10:43:00,46.5,26.9,30.10,NNW,346,3.0,12.0,46,0.00,,,0.00,WeatherCatV1.23B14,2013-11-19 15:43:00,
2013-11-19 10:48:00,46.4,26.8,30.11,NNW,346,4.0,18.0,46,0.00,,,0.00,WeatherCatV1.23B14,2013-11-19 15:48:00,
2013-11-19 10:53:00,45.8,26.2,30.11,SSE,165,4.0,13.0,46,0.00,,,0.00,WeatherCatV1.23B14,2013-11-19 15:53:00,
2013-11-19 10:58:00,45.2,26.2,30.11,North,7,4.0,13.0,47,0.00,,,0.00,WeatherCatV1.23B14,2013-11-19 15:58:00,
2013-11-19 11:03:00,45.0,27.0,30.11,WNW,302,9.0,14.0,49,0.00,,,0.00,WeatherCatV1.23B14,2013-11-19 16:03:00,
2013-11-19 11:08:00,45.6,26.5,30.11,WNW,292,7.0,9.0,47,0.00,,,0.00,WeatherCatV1.23B14,2013-11-19 16:08:00,
2013-11-19 11:13:00,46.3,26.7,30.11,NW,323,4.0,14.0,46,0.00,,,0.00,WeatherCatV1.23B14,2013-11-19 16:13:00,
2013-11-19 11:18:00,47.2,27.5,30.11,West,276,4.0,10.0,46,0.00,,,0.00,WeatherCatV1.23B14,2013-11-19 16:18:00,
2013-11-19 11:22:00,47.7,27.4,30.10,North,357,10.0,11.0,45,0.00,,,0.00,WeatherCatV1.23B14,2013-11-19 16:22:00,
2013-11-19 11:27:00,47.6,27.9,30.10,WNW,298,6.0,10.0,46,0.00,,,0.00,WeatherCatV1.23B14,2013-11-19 16:27:00,
2013-11-19 11:32:00,48.0,28.2,30.11,WNW,303,4.0,11.0,46,0.00,,,0.00,WeatherCatV1.23B14,2013-11-19 16:32:00,
2013-11-19 11:37:00,47.9,27.0,30.11,North,8,3.0,13.0,44,0.00,,,0.00,WeatherCatV1.23B14,2013-11-19 16:37:00,
2013-11-19 11:42:00,47.9,29.2,30.11,South,172,1.0,9.0,48,0.00,,,0.00,WeatherCatV1.23B14,2013-11-19 16:42:00,
2013-11-19 11:47:00,48.6,28.8,30.11,NW,321,7.0,9.0,46,0.00,,,0.00,WeatherCatV1.23B14,2013-11-19 16:47:00,
2013-11-19 11:52:00,48.7,27.2,30.11,WNW,299,6.0,15.0,43,0.00,,,0.00,WeatherCatV1.23B14,2013-11-19 16:52:00,
2013-11-19 11:57:00,48.1,26.1,30.11,NW,320,7.0,20.0,42,0.00,,,0.00,WeatherCatV1.23B14,2013-11-19 16:57:00,
2013-11-19 12:02:00,47.7,27.4,30.11,NNW,328,2.0,19.0,45,0.00,,,0.00,WeatherCatV1.23B14,2013-11-19 17:02:00,
2013-11-19 12:07:00,47.4,27.1,30.11,WNW,290,9.0,10.0,45,0.00,,,0.00,WeatherCatV1.23B14,2013-11-19 17:07:00,
2013-11-19 12:12:00,47.6,27.3,30.12,NW,307,9.0,12.0,45,0.00,,,0.00,WeatherCatV1.23B14,2013-11-19 17:12:00,
2013-11-19 12:17:00,47.9,28.1,30.11,WNW,291,7.0,9.0,46,0.00,,,0.00,WeatherCatV1.23B14,2013-11-19 17:17:00,
2013-11-19 12:22:00,48.3,28.5,30.11,WNW,301,12.0,17.0,46,0.00,,,0.00,WeatherCatV1.23B14,2013-11-19 17:22:00,
2013-11-19 12:27:00,48.3,27.4,30.11,SW,226,11.0,16.0,44,0.00,,,0.00,WeatherCatV1.23B14,2013-11-19 17:27:00,
2013-11-19 12:32:00,48.3,27.4,30.11,NNW,331,15.0,15.0,44,0.00,,,0.00,WeatherCatV1.23B14,2013-11-19 17:32:00,
2013-11-19 12:35:00,48.3,26.9,30.11,NNW,338,7.0,15.0,43,0.00,,,0.00,WeatherCatV1.23B14,2013-11-19 17:35:00,
2013-11-19 12:40:00,48.3,27.4,30.11,NNW,344,4.0,15.0,44,0.00,,,0.00,WeatherCatV1.23B14,2013-11-19 17:40:00,
2013-11-19 12:45:00,48.7,29.9,30.11,NW,319,7.0,13.0,48,0.00,,,0.00,WeatherCatV1.23B14,2013-11-19 17:45:00,
2013-11-19 12:50:00,48.8,27.9,30.11,WSW,246,15.0,15.0,44,0.00,,,0.00,WeatherCatV1.23B14,2013-11-19 17:50:00,
2013-11-19 12:55:00,48.6,27.1,30.11,NNW,340,6.0,19.0,43,0.00,,,0.00,WeatherCatV1.23B14,2013-11-19 17:55:00,
2013-11-19 13:00:00,48.4,28.0,30.11,NNW,328,5.0,11.0,45,0.00,,,0.00,WeatherCatV1.23B14,2013-11-19 18:00:00,
2013-11-19 13:05:00,48.4,28.0,30.11,West,261,5.0,14.0,45,0.00,,,0.00,WeatherCatV1.23B14,2013-11-19 18:05:00,
2013-11-19 13:10:00,48.3,27.4,30.11,NNW,328,4.0,14.0,44,0.00,,,0.00,WeatherCatV1.23B14,2013-11-19 18:10:00,
2013-11-19 13:15:00,48.3,27.4,30.10,North,357,3.0,17.0,44,0.00,,,0.00,WeatherCatV1.23B14,2013-11-19 18:15:00,
2013-11-19 13:20:00,48.1,27.2,30.10,NW,310,10.0,20.0,44,0.00,,,0.00,WeatherCatV1.23B14,2013-11-19 18:20:00,
2013-11-19 13:25:00,48.0,27.7,30.10,WNW,284,9.0,14.0,45,0.00,,,0.00,WeatherCatV1.23B14,2013-11-19 18:25:00,
2013-11-19 13:30:00,47.9,27.6,30.10,NNW,336,4.0,16.0,45,0.00,,,0.00,WeatherCatV1.23B14,2013-11-19 18:30:00,
2013-11-19 13:35:00,47.8,27.5,30.10,NW,307,5.0,19.0,45,0.00,,,0.00,WeatherCatV1.23B14,2013-11-19 18:35:00,
2013-11-19 13:40:00,47.7,26.9,30.11,NNW,340,13.0,15.0,44,0.00,,,0.00,WeatherCatV1.23B14,2013-11-19 18:40:00,
2013-11-19 13:45:00,47.6,27.9,30.11,WNW,294,5.0,10.0,46,0.00,,,0.00,WeatherCatV1.23B14,2013-11-19 18:45:00,
2013-11-19 13:50:00,47.6,26.8,30.11,SW,215,8.0,14.0,44,0.00,,,0.00,WeatherCatV1.23B14,2013-11-19 18:50:00,
2013-11-19 13:55:00,47.8,28.0,30.11,WNW,299,3.0,12.0,46,0.00,,,0.00,WeatherCatV1.23B14,2013-11-19 18:55:00,
2013-11-19 14:00:00,47.9,27.6,30.11,NNW,334,8.0,9.0,45,0.00,,,0.00,WeatherCatV1.23B14,2013-11-19 19:00:00,
2013-11-19 14:05:00,47.7,27.4,30.11,WNW,303,11.0,22.0,45,0.00,,,0.00,WeatherCatV1.23B14,2013-11-19 19:05:00,
2013-11-19 14:10:00,47.4,27.1,30.12,West,263,5.0,7.0,45,0.00,,,0.00,WeatherCatV1.23B14,2013-11-19 19:10:00,
2013-11-19 14:15:00,47.7,27.9,30.12,NW,326,2.0,12.0,46,0.00,,,0.00,WeatherCatV1.23B14,2013-11-19 19:15:00,
2013-11-19 14:20:00,47.7,26.9,30.12,NNW,332,3.0,14.0,44,0.00,,,0.00,WeatherCatV1.23B14,2013-11-19 19:20:00,
2013-11-19 14:25:00,47.6,27.9,30.12,WNW,298,2.0,6.0,46,0.00,,,0.00,WeatherCatV1.23B14,2013-11-19 19:25:00,
2013-11-19 14:30:00,47.7,26.3,30.12,North,5,5.0,10.0,43,0.00,,,0.00,WeatherCatV1.23B14,2013-11-19 19:30:00,
2013-11-19 14:35:00,47.6,26.8,30.12,North,11,5.0,12.0,44,0.00,,,0.00,WeatherCatV1.23B14,2013-11-19 19:35:00,
2013-11-19 14:40:00,47.6,27.3,30.13,NW,309,10.0,11.0,45,0.00,,,0.00,WeatherCatV1.23B14,2013-11-19 19:40:00,
2013-11-19 14:45:00,47.6,26.8,30.13,NW,317,8.0,12.0,44,0.00,,,0.00,WeatherCatV1.23B14,2013-11-19 19:45:00,
2013-11-19 14:50:00,47.5,26.7,30.13,NNW,332,12.0,12.0,44,0.00,,,0.00,WeatherCatV1.23B14,2013-11-19 19:50:00,
2013-11-19 14:55:00,47.3,26.5,30.14,NNW,336,10.0,20.0,44,0.00,,,0.00,WeatherCatV1.23B14,2013-11-19 19:55:00,
2013-11-19 15:00:00,47.0,26.2,30.14,West,272,9.0,17.0,44,0.00,,,0.00,WeatherCatV1.23B14,2013-11-19 20:00:00,
2013-11-19 15:05:00,46.7,27.0,30.14,SW,222,10.0,11.0,46,0.00,,,0.00,WeatherCatV1.23B14,2013-11-19 20:05:00,
2013-11-19 15:10:00,46.7,26.5,30.14,WNW,292,5.0,9.0,45,0.00,,,0.00,WeatherCatV1.23B14,2013-11-19 20:10:00,
2013-11-19 15:15:00,46.6,26.9,30.14,NW,313,3.0,7.0,46,0.00,,,0.00,WeatherCatV1.23B14,2013-11-19 20:15:00,
2013-11-19 15:20:00,46.5,26.9,30.14,NW,315,17.0,17.0,46,0.00,,,0.00,WeatherCatV1.23B14,2013-11-19 20:20:00,
2013-11-19 15:25:00,46.1,25.4,30.15,NW,315,5.0,14.0,44,0.00,,,0.00,WeatherCatV1.23B14,2013-11-19 20:25:00,
2013-11-19 15:30:00,45.8,25.1,30.15,NNW,340,6.0,8.0,44,0.00,,,0.00,WeatherCatV1.23B14,2013-11-19 20:30:00,
2013-11-19 15:35:00,45.4,24.8,30.15,NNW,344,12.0,15.0,44,0.00,,,0.00,WeatherCatV1.23B14,2013-11-19 20:35:00,
2013-11-19 15:41:00,45.1,24.5,30.15,NNW,339,6.0,8.0,44,0.00,,,0.00,WeatherCatV1.23B14,2013-11-19 20:41:00,
2013-11-19 15:46:00,44.8,24.8,30.15,North,357,9.0,10.0,45,0.00,,,0.00,WeatherCatV1.23B14,2013-11-19 20:46:00,
2013-11-19 15:51:00,44.6,24.6,30.15,NNE,14,11.0,12.0,45,0.00,,,0.00,WeatherCatV1.23B14,2013-11-19 20:51:00,
2013-11-19 15:56:00,44.5,24.5,30.15,NNE,26,7.0,16.0,45,0.00,,,0.00,WeatherCatV1.23B14,2013-11-19 20:56:00,
2013-11-19 16:01:00,44.3,24.3,30.16,NW,306,5.0,13.0,45,0.00,,,0.00,WeatherCatV1.23B14,2013-11-19 21:01:00,
2013-11-19 16:06:00,44.2,24.2,30.16,NNW,327,4.0,14.0,45,0.00,,,0.00,WeatherCatV1.23B14,2013-11-19 21:06:00,
2013-11-19 16:11:00,44.0,24.6,30.15,WNW,302,2.0,12.0,46,0.00,,,0.00,WeatherCatV1.23B14,2013-11-19 21:11:00,
2013-11-19 16:16:00,43.9,24.5,30.15,North,356,7.0,15.0,46,0.00,,,0.00,WeatherCatV1.23B14,2013-11-19 21:16:00,
2013-11-19 16:21:00,43.7,24.3,30.16,NW,323,3.0,10.0,46,0.00,,,0.00,WeatherCatV1.23B14,2013-11-19 21:21:00,
2013-11-19 16:26:00,43.5,24.6,30.16,NNW,339,4.0,7.0,47,0.00,,,0.00,WeatherCatV1.23B14,2013-11-19 21:26:00,
2013-11-19 16:31:00,43.2,24.4,30.16,North,351,9.0,16.0,47,0.00,,,0.00,WeatherCatV1.23B14,2013-11-19 21:31:00,
2013-11-19 16:36:00,43.1,24.3,30.17,WNW,299,7.0,14.0,47,0.00,,,0.00,WeatherCatV1.23B14,2013-11-19 21:36:00,
2013-11-19 16:41:00,42.9,24.1,30.17,North,349,11.0,15.0,47,0.00,,,0.00,WeatherCatV1.23B14,2013-11-19 21:41:00,
2013-11-19 16:46:00,42.7,24.4,30.17,WNW,284,4.0,9.0,48,0.00,,,0.00,WeatherCatV1.23B14,2013-11-19 21:46:00,
2013-11-19 16:51:00,42.6,23.8,30.17,NNE,33,6.0,10.0,47,0.00,,,0.00,WeatherCatV1.23B14,2013-11-19 21:51:00,
2013-11-19 16:56:00,42.4,24.6,30.17,ENE,57,2.0,7.0,49,0.00,,,0.00,WeatherCatV1.23B14,2013-11-19 21:56:00,
2013-11-19 17:01:00,42.1,23.8,30.18,NNW,327,1.0,5.0,48,0.00,,,0.00,WeatherCatV1.23B14,2013-11-19 22:01:00,
2013-11-19 17:06:00,41.9,24.1,30.19,North,1,4.0,7.0,49,0.00,,,0.00,WeatherCatV1.23B14,2013-11-19 22:06:00,
2013-11-19 17:11:00,41.6,23.9,30.19,NNW,332,1.0,4.0,49,0.00,,,0.00,WeatherCatV1.23B14,2013-11-19 22:11:00,
2013-11-19 17:16:00,41.4,24.2,30.19,West,268,3.0,7.0,50,0.00,,,0.00,WeatherCatV1.23B14,2013-11-19 22:16:00,
2013-11-19 17:21:00,41.2,24.0,30.20,NNE,12,1.0,4.0,50,0.00,,,0.00,WeatherCatV1.23B14,2013-11-19 22:21:00,
2013-11-19 17:26:00,41.1,23.9,30.20,WNW,303,6.0,11.0,50,0.00,,,0.00,WeatherCatV1.23B14,2013-11-19 22:26:00,
2013-11-19 17:31:00,40.9,24.2,30.21,NNE,22,3.0,8.0,51,0.00,,,0.00,WeatherCatV1.23B14,2013-11-19 22:31:00,
2013-11-19 17:36:00,40.8,24.1,30.21,West,274,5.0,6.0,51,0.00,,,0.00,WeatherCatV1.23B14,2013-11-19 22:36:00,
2013-11-19 17:41:00,40.6,23.9,30.22,North,350,6.0,6.0,51,0.00,,,0.00,WeatherCatV1.23B14,2013-11-19 22:41:00,
2013-11-19 17:46:00,40.4,23.7,30.22,WNW,287,3.0,10.0,51,0.00,,,0.00,WeatherCatV1.23B14,2013-11-19 22:46:00,
2013-11-19 17:51:00,40.2,23.5,30.22,NNW,330,2.0,3.0,51,0.00,,,0.00,WeatherCatV1.23B14,2013-11-19 22:51:00,
2013-11-19 17:56:00,40.1,23.9,30.22,NW,320,4.0,9.0,52,0.00,,,0.00,WeatherCatV1.23B14,2013-11-19 22:56:00,
2013-11-19 18:01:00,39.9,23.3,30.23,North,351,3.0,10.0,51,0.00,,,0.00,WeatherCatV1.23B14,2013-11-19 23:01:00,
2013-11-19 18:06:00,39.7,24.0,30.23,NNW,336,4.0,4.0,53,0.00,,,0.00,WeatherCatV1.23B14,2013-11-19 23:06:00,
2013-11-19 18:11:00,39.6,23.4,30.23,North,0,2.0,5.0,52,0.00,,,0.00,WeatherCatV1.23B14,2013-11-19 23:11:00,
2013-11-19 18:16:00,39.4,23.3,30.24,NW,312,1.0,7.0,52,0.00,,,0.00,WeatherCatV1.23B14,2013-11-19 23:16:00,
2013-11-19 18:21:00,39.3,23.6,30.24,NW,317,2.0,2.0,53,0.00,,,0.00,WeatherCatV1.23B14,2013-11-19 23:21:00,
2013-11-19 18:26:00,39.0,24.2,30.24,ENE,61,1.0,5.0,55,0.00,,,0.00,WeatherCatV1.23B14,2013-11-19 23:26:00,
2013-11-19 18:31:00,38.8,23.6,30.25,NW,305,0.0,2.0,54,0.00,,,0.00,WeatherCatV1.23B14,2013-11-19 23:31:00,
2013-11-19 18:36:00,38.5,23.8,30.25,NW,321,2.0,4.0,55,0.00,,,0.00,WeatherCatV1.23B14,2013-11-19 23:36:00,
2013-11-19 18:41:00,38.2,23.9,30.25,North,349,2.0,4.0,56,0.00,,,0.00,WeatherCatV1.23B14,2013-11-19 23:41:00,
2013-11-19 18:46:00,37.9,24.0,30.25,North,349,0.0,2.0,57,0.00,,,0.00,WeatherCatV1.23B14,2013-11-19 23:46:00,
2013-11-19 18:51:00,37.5,24.1,30.25,NW,325,1.0,5.0,58,0.00,,,0.00,WeatherCatV1.23B14,2013-11-19 23:51:00,
2013-11-19 18:56:00,37.3,23.5,30.25,WNW,293,3.0,4.0,57,0.00,,,0.00,WeatherCatV1.23B14,2013-11-19 23:56:00,
2013-11-19 19:01:00,37.2,23.4,30.25,NW,315,2.0,7.0,57,0.00,,,0.00,WeatherCatV1.23B14,2013-11-20 00:01:00,
2013-11-19 19:06:00,37.2,23.4,30.26,NW,322,2.0,3.0,57,0.00,,,0.00,WeatherCatV1.23B14,2013-11-20 00:06:00,
2013-11-19 19:11:00,37.1,23.7,30.26,WNW,300,0.0,2.0,58,0.00,,,0.00,WeatherCatV1.23B14,2013-11-20 00:11:00,
2013-11-19 19:16:00,37.0,23.2,30.26,WNW,286,1.0,5.0,57,0.00,,,0.00,WeatherCatV1.23B14,2013-11-20 00:16:00,
2013-11-19 19:21:00,36.9,23.9,30.26,NW,319,2.0,2.0,59,0.00,,,0.00,WeatherCatV1.23B14,2013-11-20 00:21:00,
2013-11-19 19:26:00,36.7,23.7,30.26,NW,320,1.0,1.0,59,0.00,,,0.00,WeatherCatV1.23B14,2013-11-20 00:26:00,
2013-11-19 19:31:00,36.4,23.9,30.26,NNW,332,0.0,2.0,60,0.00,,,0.00,WeatherCatV1.23B14,2013-11-20 00:31:00,
2013-11-19 19:36:00,36.0,23.9,30.27,NNW,332,0.0,0.0,61,0.00,,,0.00,WeatherCatV1.23B14,2013-11-20 00:36:00,
2013-11-19 19:41:00,35.5,23.4,30.27,NNW,332,1.0,2.0,61,0.00,,,0.00,WeatherCatV1.23B14,2013-11-20 00:41:00,
2013-11-19 19:45:00,35.1,23.4,30.27,NW,325,0.0,3.0,62,0.00,,,0.00,WeatherCatV1.23B14,2013-11-20 00:45:00,
2013-11-19 19:50:00,34.8,23.9,30.28,NNW,328,1.0,7.0,64,0.00,,,0.00,WeatherCatV1.23B14,2013-11-20 00:50:00,
2013-11-19 19:55:00,34.6,23.3,30.28,NW,304,2.0,2.0,63,0.00,,,0.00,WeatherCatV1.23B14,2013-11-20 00:55:00,
2013-11-19 20:00:00,34.5,23.2,30.28,NW,320,2.0,2.0,63,0.00,,,0.00,WeatherCatV1.23B14,2013-11-20 01:00:00,
2013-11-19 20:05:00,34.4,23.9,30.28,West,261,0.0,1.0,65,0.00,,,0.00,WeatherCatV1.23B14,2013-11-20 01:05:00,
2013-11-19 20:10:00,34.2,24.0,30.28,West,261,0.0,0.0,66,0.00,,,0.00,WeatherCatV1.23B14,2013-11-20 01:10:00,
2013-11-19 20:15:00,33.9,23.8,30.29,West,261,2.0,2.0,66,0.00,,,0.00,WeatherCatV1.23B14,2013-11-20 01:15:00,
2013-11-19 20:20:00,33.5,23.4,30.29,West,261,1.0,2.0,66,0.00,,,0.00,WeatherCatV1.23B14,2013-11-20 01:20:00,
2013-11-19 20:25:00,33.3,23.9,30.29,NNW,342,1.0,4.0,68,0.00,,,0.00,WeatherCatV1.23B14,2013-11-20 01:25:00,
2013-11-19 20:30:00,33.0,23.3,30.29,NNW,342,0.0,1.0,67,0.00,,,0.00,WeatherCatV1.23B14,2013-11-20 01:30:00,
2013-11-19 20:35:00,32.7,24.0,30.30,NNW,342,0.0,2.0,70,0.00,,,0.00,WeatherCatV1.23B14,2013-11-20 01:35:00,
2013-11-19 20:40:00,32.4,23.4,30.30,NNW,342,0.0,1.0,69,0.00,,,0.00,WeatherCatV1.23B14,2013-11-20 01:40:00,
2013-11-19 20:45:00,32.1,23.4,30.30,NNW,342,1.0,1.0,70,0.00,,,0.00,WeatherCatV1.23B14,2013-11-20 01:45:00,
2013-11-19 20:52:00,31.8,23.1,30.31,NNW,331,1.0,2.0,70,0.00,,,0.00,WeatherCatV1.23B14,2013-11-20 01:52:00,
2013-11-19 20:57:00,31.8,23.5,30.31,NNW,342,2.0,3.0,71,0.00,,,0.00,WeatherCatV1.23B14,2013-11-20 01:57:00,
2013-11-19 21:02:00,32.0,23.3,30.31,WNW,297,2.0,3.0,70,0.00,,,0.00,WeatherCatV1.23B14,2013-11-20 02:02:00,
2013-11-19 21:07:00,32.2,23.9,30.31,NNW,342,1.0,2.0,71,0.00,,,0.00,WeatherCatV1.23B14,2013-11-20 02:07:00,
2013-11-19 21:12:00,32.2,23.9,30.31,NNW,342,1.0,2.0,71,0.00,,,0.00,WeatherCatV1.23B14,2013-11-20 02:12:00,
2013-11-19 21:17:00,32.1,23.8,30.32,NNW,342,0.0,1.0,71,0.00,,,0.00,WeatherCatV1.23B14,2013-11-20 02:17:00,
2013-11-19 21:22:00,31.9,23.6,30.32,NNW,342,0.0,0.0,71,0.00,,,0.00,WeatherCatV1.23B14,2013-11-20 02:22:00,
2013-11-19 21:27:00,31.7,23.7,30.33,NNW,342,0.0,1.0,72,0.00,,,0.00,WeatherCatV1.23B14,2013-11-20 02:27:00,
2013-11-19 21:32:00,31.5,23.2,30.32,NNW,342,1.0,1.0,71,0.00,,,0.00,WeatherCatV1.23B14,2013-11-20 02:32:00,
2013-11-19 21:37:00,31.3,23.3,30.32,NNW,342,2.0,2.0,72,0.00,,,0.00,WeatherCatV1.23B14,2013-11-20 02:37:00,
2013-11-19 21:42:00,31.2,23.2,30.33,NNW,342,2.0,3.0,72,0.00,,,0.00,WeatherCatV1.23B14,2013-11-20 02:42:00,
2013-11-19 21:47:00,31.1,23.8,30.33,NNW,342,1.0,3.0,74,0.00,,,0.00,WeatherCatV1.23B14,2013-11-20 02:47:00,
2013-11-19 21:52:00,31.0,23.7,30.33,NNW,342,1.0,2.0,74,0.00,,,0.00,WeatherCatV1.23B14,2013-11-20 02:52:00,
2013-11-19 21:57:00,30.9,23.6,30.32,NNW,342,1.0,2.0,74,0.00,,,0.00,WeatherCatV1.23B14,2013-11-20 02:57:00,
2013-11-19 22:02:00,30.8,23.8,30.32,NNW,342,1.0,2.0,75,0.00,,,0.00,WeatherCatV1.23B14,2013-11-20 03:02:00,
2013-11-19 22:07:00,30.6,23.6,30.32,NNW,344,2.0,2.0,75,0.00,,,0.00,WeatherCatV1.23B14,2013-11-20 03:07:00,
2013-11-19 22:12:00,30.4,23.4,30.33,NNW,345,0.0,1.0,75,0.00,,,0.00,WeatherCatV1.23B14,2013-11-20 03:12:00,
2013-11-19 22:17:00,30.2,23.6,30.33,NNW,345,0.0,1.0,76,0.00,,,0.00,WeatherCatV1.23B14,2013-11-20 03:17:00,
2013-11-19 22:22:00,30.0,23.4,30.33,NNW,345,0.0,1.0,76,0.00,,,0.00,WeatherCatV1.23B14,2013-11-20 03:22:00,
2013-11-19 22:27:00,29.9,23.6,30.33,NNW,345,0.0,0.0,77,0.00,,,0.00,WeatherCatV1.23B14,2013-11-20 03:27:00,
2013-11-19 22:32:00,29.7,23.0,30.34,NNW,345,0.0,1.0,76,0.00,,,0.00,weatherlink.com 1.10,2013-11-20 03:32:00,
2013-11-19 22:37:00,29.5,23.5,30.34,NNW,345,0.0,0.0,78,0.00,,,0.00,WeatherCatV1.23B14,2013-11-20 03:37:00,
2013-11-19 22:42:00,29.2,23.2,30.34,NNW,345,0.0,1.0,78,0.00,,,0.00,WeatherCatV1.23B14,2013-11-20 03:42:00,
2013-11-19 22:47:00,29.0,23.0,30.34,NNW,345,0.0,1.0,78,0.00,,,0.00,WeatherCatV1.23B14,2013-11-20 03:47:00,
2013-11-19 22:52:00,28.8,23.1,30.35,NNW,345,0.0,0.0,79,0.00,,,0.00,WeatherCatV1.23B14,2013-11-20 03:52:00,
2013-11-19 22:57:00,28.7,23.0,30.35,NNW,345,1.0,1.0,79,0.00,,,0.00,WeatherCatV1.23B14,2013-11-20 03:57:00,
2013-11-19 23:02:00,28.6,22.6,30.35,NNW,345,0.0,1.0,78,0.00,,,0.00,WeatherCatV1.23B14,2013-11-20 04:02:00,
2013-11-19 23:07:00,28.6,22.6,30.35,NNW,345,2.0,2.0,78,0.00,,,0.00,WeatherCatV1.23B14,2013-11-20 04:07:00,
2013-11-19 23:12:00,28.7,22.7,30.36,NNW,345,0.0,1.0,78,0.00,,,0.00,WeatherCatV1.23B14,2013-11-20 04:12:00,
2013-11-19 23:17:00,28.7,23.0,30.36,NNW,345,0.0,2.0,79,0.00,,,0.00,WeatherCatV1.23B14,2013-11-20 04:17:00,
2013-11-19 23:22:00,28.7,23.0,30.36,NNW,345,2.0,2.0,79,0.00,,,0.00,WeatherCatV1.23B14,2013-11-20 04:22:00,
2013-11-19 23:27:00,28.8,23.1,30.36,NNW,345,1.0,2.0,79,0.00,,,0.00,WeatherCatV1.23B14,2013-11-20 04:27:00,
2013-11-19 23:32:00,28.8,23.1,30.36,NNW,345,0.0,0.0,79,0.00,,,0.00,WeatherCatV1.23B14,2013-11-20 04:32:00,
2013-11-19 23:37:00,28.7,23.0,30.36,North,9,2.0,3.0,79,0.00,,,0.00,WeatherCatV1.23B14,2013-11-20 04:37:00,
2013-11-19 23:42:00,28.6,22.9,30.37,NNW,339,0.0,2.0,79,0.00,,,0.00,WeatherCatV1.23B14,2013-11-20 04:42:00,
2013-11-19 23:47:00,28.5,22.8,30.37,NNW,339,0.0,2.0,79,0.00,,,0.00,WeatherCatV1.23B14,2013-11-20 04:47:00,
2013-11-19 23:52:00,28.5,23.1,30.36,NNW,339,1.0,1.0,80,0.00,,,0.00,WeatherCatV1.23B14,2013-11-20 04:52:00,
2013-11-19 23:57:00,28.5,23.1,30.36,NNW,339,0.0,0.0,80,0.00,,,0.00,WeatherCatV1.23B14,2013-11-20 04:57:00,